[[{"header":{"parameterUnit":"m.s-1","parameterCategory":1,"la1":30.2991,"la2":30.254,"lo1":-89.0895,"lo2":-89.0444,"dy":0.0017,"dx":0.0017,"nx":28,"ny":28,"refTime":"2025-04-28T09:00:00:Z","depth":0,"parameterNumber":2,"parameterNumberName":"U-component_of_WINDS"},"data":[0,0,0,0,0,0,0,0,0,0,0,0,0,0,0,0,0,0,0,0,0,0,0,0,0,0,0,0,0,0,0,0,0,0,0,0,0,0,0,0,0,0,0,0,0,0,0,0,0,0,0,0,0,0,0,0,0,0,-1.328,-1.3279,0,-1.3215,-1.3214,-1.3213,-1.3167,-1.3166,-1.3166,-1.3165,-1.3097,-1.3096,-1.3095,0,0,0,0,0,0,0,0,0,0,0,0,0,-1.3363,-1.3362,-1.328,-1.3279,-1.3278,-1.3215,-1.3214,-1.3213,-1.3167,-1.3166,-1.3166,-1.3165,-1.3098,-1.3096,-1.3094,0,0,0,0,0,0,0,0,0,0,0,0,0,-1.3316,-1.3362,-1.328,-1.3247,-1.3244,-1.3215,-1.3214,-1.3213,-1.3167,-1.3166,-1.3166,-1.3165,-1.3098,-1.3096,-1.3094,-1.3092,0,0,-1.3087,-1.3086,0,0,0,0,0,0,0,0,-1.3318,-1.3313,-1.3253,-1.325,-1.3246,-1.3198,-1.3218,-1.3172,-1.3167,-1.3196,-1.3165,-1.3165,-1.3131,-1.3126,-1.3115,-1.3089,-1.3086,-1.3087,-1.3086,-1.3085,-1.3084,0,0,0,0,0,0,0,-1.3322,-1.3315,-1.3254,-1.3252,-1.3248,-1.3236,-1.3229,-1.3209,-1.3168,-1.3193,-1.319,-1.3183,-1.3129,-1.3118,-1.3113,-1.3085,-1.3087,-1.3085,-1.3084,-1.3083,-1.3055,-1.3055,0,0,0,0,0,0,-1.333,-1.3318,-1.3256,-1.3252,-1.3281,-1.3235,-1.3227,-1.3214,-1.3168,-1.316,-1.3183,-1.3181,-1.3122,-1.3116,-1.3111,-1.3106,-1.3085,-1.3083,-1.3082,-1.3054,-1.3055,-1.3055,0,0,0,0,0,0,-1.3332,-1.3325,-1.3259,-1.3284,-1.3275,-1.3234,-1.322,-1.3213,-1.3201,-1.316,-1.3152,-1.3179,-1.3121,-1.3114,-1.3097,-1.3103,-1.3082,-1.308,-1.3053,-1.3054,-1.3055,-1.3096,0,0,0,0,0,0,-1.3335,-1.3326,-1.3325,-1.3284,-1.3274,-1.3246,-1.3221,-1.3212,-1.3198,-1.3194,-1.3154,-1.3147,-1.312,-1.3101,-1.3095,-1.3099,-1.3078,-1.3053,-1.3054,-1.3055,-1.3094,-1.3098,-1.3101,0,0,0,0,0,-1.3338,-1.3338,-1.3325,-1.3318,-1.3271,-1.3247,-1.324,-1.321,-1.3198,-1.3197,-1.3171,-1.3148,-1.3103,-1.31,-1.3093,-1.3096,-1.3052,-1.3053,-1.3055,-1.3092,-1.3097,-1.3101,0,0,0,0,0,0,-1.3379,-1.3332,-1.3317,-1.3304,-1.328,-1.3239,-1.3236,-1.3216,-1.3194,-1.3191,-1.3153,-1.3145,-1.3133,-1.3113,-1.3109,-1.3093,-1.3075,-1.3075,-1.3106,-1.311,-1.3114,-1.3119,-1.3076,0,0,0,0,0,-1.3387,-1.3372,-1.3331,-1.3324,-1.3313,-1.3277,-1.3265,-1.3243,-1.3216,-1.3206,-1.3178,-1.3153,-1.3133,-1.3121,-1.31,-1.3091,-1.3082,-1.309,-1.3094,-1.3097,-1.3098,-1.3092,-1.3096,-1.3059,-1.3059,-1.3059,0,0,-1.3403,-1.3375,-1.3367,-1.3331,-1.331,-1.3295,-1.3268,-1.3253,-1.3241,-1.3203,-1.3186,-1.3165,-1.3135,-1.3122,-1.3115,-1.3105,-1.3106,-1.3099,-1.3102,-1.31,-1.3094,-1.3098,-1.3101,-1.306,-1.306,-1.306,0,0,-1.3423,-1.3401,-1.3392,-1.3372,-1.3341,-1.3317,-1.3315,-1.3278,-1.3263,-1.3245,-1.3217,-1.3203,-1.3169,-1.3149,-1.3134,-1.3149,-1.3128,-1.3143,-1.3163,-1.3158,-1.3161,-1.3164,-1.3169,-1.3172,-1.3144,-1.3144,-1.3144,0,-1.3446,-1.3422,-1.3391,-1.3377,-1.3363,-1.3329,-1.3321,-1.3302,-1.3266,-1.3256,-1.3246,-1.3205,-1.3181,-1.3164,-1.3168,-1.3157,-1.3154,-1.3147,-1.3164,-1.3166,-1.3167,-1.3172,-1.3175,-1.3146,-1.3146,-1.3146,-1.3145,0,-1.3453,-1.3437,-1.3434,-1.34,-1.3385,-1.3375,-1.3342,-1.333,-1.3311,-1.3289,-1.3272,-1.3243,-1.3217,-1.3211,-1.3192,-1.3192,-1.3187,-1.3171,-1.3152,-1.3173,-1.3178,-1.3179,-1.3149,-1.3148,-1.3148,-1.3147,0,0,-1.3496,-1.3446,-1.3446,-1.3431,-1.3394,-1.3381,-1.337,-1.3345,-1.3336,-1.3312,-1.3302,-1.3275,-1.3261,-1.3244,-1.3222,-1.3218,-1.3233,-1.3202,-1.3201,-1.3209,-1.3232,-1.3244,-1.3247,-1.3219,-1.3219,-1.3219,-1.3234,0,-1.3511,-1.3488,-1.346,-1.3447,-1.3432,-1.3401,-1.3391,-1.3368,-1.3347,-1.3331,-1.3308,-1.329,-1.3272,-1.3262,-1.3257,-1.3232,-1.3237,-1.323,-1.3209,-1.3208,-1.3217,-1.3249,-1.3261,-1.3277,-1.3236,-1.3236,-1.3236,0,-1.3525,-1.3504,-1.349,-1.3456,-1.3448,-1.344,-1.3415,-1.3401,-1.3374,-1.336,-1.3342,-1.3319,-1.3306,-1.329,-1.3271,-1.3268,-1.3257,-1.3244,-1.3244,-1.324,-1.3223,-1.3246,-1.3281,-1.3284,-1.3238,-1.3238,-1.3238,0,-1.3559,-1.3527,-1.3514,-1.3502,-1.3462,-1.3457,-1.344,-1.3413,-1.34,-1.3379,-1.3371,-1.3348,-1.3335,-1.3319,-1.329,-1.3281,-1.3275,-1.3256,-1.3262,-1.3263,-1.3261,-1.3262,-1.3295,-1.3255,-1.3255,-1.3255,-1.3255,0,-1.3578,-1.3571,-1.3529,-1.3521,-1.3512,-1.348,-1.3472,-1.3453,-1.3429,-1.3417,-1.3389,-1.3379,-1.3342,-1.3327,-1.3305,-1.3293,-1.3287,-1.3275,-1.3269,-1.3278,-1.3279,-1.327,-1.3268,-1.3256,-1.3256,-1.3256,-1.3255,0,-1.3614,-1.3585,-1.357,-1.3534,-1.3525,-1.352,-1.3489,-1.3481,-1.3459,-1.3444,-1.3439,-1.3405,-1.3387,-1.3357,-1.3329,-1.3314,-1.3307,-1.3297,-1.3316,-1.3312,-1.332,-1.332,-1.3348,-1.3351,-1.3309,-1.331,-1.331,0,-1.3628,-1.3621,-1.3585,-1.3576,-1.356,-1.3545,-1.3532,-1.3501,-1.3489,-1.3459,-1.3455,-1.3434,-1.3416,-1.3388,-1.336,-1.334,-1.3329,-1.3341,-1.3326,-1.3335,-1.3329,-1.333,-1.333,-1.3344,-1.3344,-1.3345,-1.3345,0,-1.3656,-1.3643,-1.3626,-1.3604,-1.359,-1.3571,-1.3551,-1.3545,-1.3509,-1.3497,-1.3478,-1.3465,-1.3437,-1.3417,-1.3393,-1.3376,-1.3355,-1.3351,-1.3351,-1.3359,-1.337,-1.3365,-1.3325,-1.335,-1.3349,-1.3349,-1.3349,-1.3349,-1.3682,-1.3675,-1.3649,-1.3631,-1.3613,-1.3595,-1.3586,-1.3564,-1.3547,-1.3523,-1.3506,-1.3488,-1.3463,-1.3428,-1.3412,-1.3398,-1.3389,-1.3389,-1.3389,-1.339,-1.3393,-1.3373,-1.3394,-1.3394,-1.3394,-1.3393,-1.3393,0,-1.3709,-1.3691,-1.3675,-1.3648,-1.3635,-1.3617,-1.3594,-1.3584,-1.3569,-1.3547,-1.3531,-1.3509,-1.349,-1.3462,-1.3441,-1.3436,-1.3426,-1.3431,-1.3431,-1.3428,-1.3403,-1.3405,-1.344,-1.344,-1.344,-1.344,-1.344,-1.344,-1.3722,-1.371,-1.3694,-1.3673,-1.3655,-1.3638,-1.3626,-1.361,-1.3593,-1.3571,-1.3555,-1.3537,-1.3513,-1.3491,-1.3473,-1.3465,-1.3459,-1.3467,-1.3457,-1.3434,-1.3429,-1.3425,-1.3427,-1.3466,-1.3466,-1.3483,-1.3483,-1.3483]},{"header":{"parameterUnit":"m.s-1","parameterCategory":1,"la1":30.2991,"la2":30.254,"lo1":-89.0895,"lo2":-89.0444,"dy":0.0017,"dx":0.0017,"nx":28,"ny":28,"refTime":"2025-04-28T09:00:00:Z","depth":0,"parameterNumber":3,"parameterNumberName":"V-component_of_WINDS"},"data":[0,0,0,0,0,0,0,0,0,0,0,0,0,0,0,0,0,0,0,0,0,0,0,0,0,0,0,0,0,0,0,0,0,0,0,0,0,0,0,0,0,0,0,0,0,0,0,0,0,0,0,0,0,0,0,0,0,0,4.3744,4.3744,0,4.3748,4.3748,4.3748,4.3768,4.3769,4.3769,4.377,4.3769,4.3768,4.3768,0,0,0,0,0,0,0,0,0,0,0,0,0,4.3751,4.375,4.3744,4.3744,4.3744,4.3748,4.3748,4.3748,4.3768,4.3769,4.3769,4.377,4.3769,4.3768,4.3768,0,0,0,0,0,0,0,0,0,0,0,0,0,4.375,4.375,4.3744,4.3755,4.3756,4.3748,4.3748,4.3748,4.3768,4.3769,4.3769,4.377,4.3769,4.3768,4.3768,4.3748,0,0,4.3765,4.3765,0,0,0,0,0,0,0,0,4.375,4.375,4.3753,4.3754,4.3755,4.3758,4.375,4.3748,4.3768,4.3763,4.377,4.377,4.3764,4.3764,4.3763,4.3748,4.3748,4.3765,4.3765,4.3764,4.3764,0,0,0,0,0,0,0,4.375,4.375,4.3745,4.3753,4.3754,4.3758,4.3759,4.375,4.3759,4.3764,4.3765,4.3765,4.3765,4.3764,4.3763,4.3748,4.3765,4.3765,4.3764,4.3764,4.3719,4.3718,0,0,0,0,0,0,4.3749,4.375,4.3745,4.3746,4.3755,4.3757,4.3758,4.3756,4.376,4.3761,4.3765,4.3766,4.3764,4.3764,4.3763,4.3741,4.3764,4.3764,4.3763,4.372,4.3719,4.3718,0,0,0,0,0,0,4.3749,4.3749,4.3745,4.3748,4.3748,4.3757,4.3754,4.3756,4.3755,4.3761,4.3762,4.3762,4.3765,4.3764,4.3752,4.3742,4.3763,4.3763,4.3721,4.3719,4.3718,4.3697,0,0,0,0,0,0,4.375,4.3749,4.3742,4.3748,4.3748,4.3735,4.3754,4.3756,4.3754,4.3756,4.3758,4.3759,4.3766,4.3753,4.3752,4.3741,4.3762,4.3722,4.372,4.3719,4.3699,4.3696,4.3693,0,0,0,0,0,4.375,4.3735,4.3742,4.3741,4.374,4.3735,4.3734,4.3743,4.3753,4.3746,4.375,4.3759,4.3743,4.3752,4.375,4.3739,4.3722,4.372,4.3719,4.37,4.3696,4.3693,0,0,0,0,0,0,4.3725,4.3736,4.3743,4.373,4.3732,4.3738,4.3729,4.3739,4.3736,4.3738,4.3748,4.3748,4.3735,4.3736,4.3745,4.3721,4.3734,4.3732,4.3721,4.3717,4.3714,4.3714,4.3762,0,0,0,0,0,4.3719,4.3715,4.3723,4.3711,4.3711,4.372,4.3718,4.3726,4.3727,4.3727,4.373,4.373,4.3725,4.3721,4.3717,4.37,4.37,4.3691,4.3688,4.3686,4.3683,4.3675,4.3671,4.3712,4.3712,4.3712,0,0,4.3704,4.3709,4.3706,4.3706,4.3708,4.3703,4.3721,4.3714,4.371,4.3725,4.3715,4.3717,4.3718,4.3704,4.3697,4.3704,4.3672,4.3683,4.3681,4.368,4.3673,4.3669,4.3666,4.3711,4.3711,4.3712,0,0,4.3675,4.3679,4.3669,4.3672,4.3675,4.3682,4.368,4.3685,4.3688,4.3678,4.369,4.3685,4.3676,4.3676,4.3675,4.3649,4.3657,4.3647,4.363,4.3622,4.3619,4.3616,4.3607,4.3603,4.3645,4.3645,4.3645,0,4.3656,4.365,4.3663,4.3656,4.3656,4.3672,4.3662,4.3663,4.3664,4.3663,4.3671,4.3662,4.3663,4.365,4.3644,4.3642,4.3639,4.3646,4.3619,4.3616,4.3613,4.3604,4.3601,4.3644,4.3644,4.3644,4.3644,0,4.3627,4.3623,4.3614,4.3618,4.3617,4.3608,4.3619,4.3616,4.3624,4.3629,4.3619,4.3622,4.3619,4.3616,4.3622,4.3604,4.3608,4.3617,4.363,4.3608,4.36,4.3597,4.3642,4.3642,4.3643,4.3643,0,0,4.3581,4.3593,4.359,4.3592,4.3598,4.3595,4.3587,4.3586,4.3584,4.3585,4.3578,4.3572,4.3581,4.3579,4.3586,4.3579,4.3559,4.3589,4.3589,4.3583,4.3538,4.3531,4.3527,4.3565,4.3564,4.3564,4.3538,0,4.3554,4.3543,4.3555,4.3541,4.3538,4.3554,4.3547,4.355,4.3555,4.3552,4.3557,4.3552,4.3565,4.3564,4.3558,4.3562,4.355,4.3564,4.3558,4.3557,4.3557,4.3523,4.3515,4.3491,4.3535,4.3535,4.3534,0,4.352,4.3522,4.3508,4.3517,4.3516,4.351,4.3511,4.3508,4.3511,4.3515,4.3515,4.3525,4.3517,4.3531,4.3521,4.3531,4.3529,4.3531,4.353,4.3529,4.3544,4.3521,4.3484,4.348,4.353,4.353,4.353,0,4.3488,4.3487,4.3479,4.348,4.349,4.3486,4.3489,4.3494,4.3493,4.3493,4.3493,4.3491,4.349,4.3489,4.3498,4.3507,4.3486,4.3501,4.3489,4.3489,4.3483,4.3483,4.3445,4.3482,4.3482,4.3482,4.3483,0,4.3456,4.3447,4.3465,4.346,4.3451,4.3464,4.3454,4.3459,4.3463,4.3459,4.3473,4.3468,4.348,4.3476,4.3483,4.3474,4.3473,4.3476,4.3477,4.3474,4.3474,4.3473,4.3474,4.3482,4.3482,4.3482,4.3482,0,4.3418,4.343,4.3423,4.3433,4.3436,4.3429,4.3437,4.3433,4.344,4.3434,4.3434,4.3444,4.3441,4.345,4.3447,4.3452,4.3438,4.3443,4.3438,4.3439,4.3427,4.3428,4.3386,4.3381,4.3422,4.3422,4.3421,0,4.3396,4.3391,4.3402,4.3401,4.3404,4.3402,4.3402,4.3416,4.3415,4.342,4.3414,4.3413,4.3412,4.3406,4.3413,4.3411,4.3415,4.3401,4.3415,4.3413,4.3415,4.3415,4.3415,4.3398,4.3397,4.3397,4.3396,0,4.3357,4.3364,4.3364,4.3367,4.3367,4.337,4.3373,4.3371,4.3385,4.3384,4.3382,4.3382,4.3381,4.3379,4.3379,4.3381,4.3391,4.3392,4.339,4.3386,4.3383,4.3385,4.343,4.3393,4.3393,4.3393,4.3394,4.3394,4.3327,4.3323,4.3331,4.3331,4.3335,4.3338,4.3335,4.3343,4.3342,4.3343,4.3351,4.3348,4.3352,4.3354,4.3356,4.3353,4.3359,4.3355,4.3354,4.3353,4.3351,4.3385,4.3353,4.3353,4.3353,4.3353,4.3353,0,4.3289,4.3295,4.3295,4.33,4.3301,4.3312,4.3317,4.3316,4.3313,4.3317,4.3317,4.3315,4.3314,4.3322,4.3321,4.3317,4.3322,4.3317,4.3317,4.3317,4.3345,4.3347,4.3313,4.3313,4.3313,4.3313,4.3313,4.3313,4.3269,4.3263,4.3271,4.3267,4.3273,4.3271,4.3273,4.3276,4.3279,4.3277,4.3277,4.3283,4.3288,4.3289,4.3288,4.329,4.3289,4.3282,4.3286,4.3311,4.3315,4.3319,4.3321,4.3282,4.3282,4.3259,4.3258,4.3258]}]]